Regional Weather Roundup
Issued by NWS Mobile, AL

Home | Current Version | Previous Version | Text Only | Print | Product List | Glossary On
Versions: 1 2 3 4 5 6 7 8 9 10 11 12 13 14 15 16 17 18 19 20 21 22 23 24 25 26 27
000
ASUS44 KMOB 192314
RWRMOB
REGIONAL WEATHER ROUNDUP
NATIONAL WEATHER SERVICE MOBILE AL
600 PM CDT SAT JUN 19 2021

NOTE: "FAIR" INDICATES FEW OR NO CLOUDS BELOW 12,000 FEET WITH NO
      SIGNIFICANT WEATHER AND/OR OBSTRUCTIONS TO VISIBILITY.

  * THESE STATIONS ARE PART OF THE UNIVERSITY OF SOUTH ALABAMA
    MESONET AND ARE NOT UNDER NWS OR FAA QUALITY CONTROL.

ALZ061>064-200000-
COASTAL ALABAMA

CITY           SKY/WX    TMP DP  RH WIND       PRES   REMARKS
MOBILE REG APT CLOUDY    78  74  87 W7        29.83R
BROOKLEY FIELD CLOUDY    83  72  69 SW15G25   29.83R
USA CAMPUS*    NOT AVBL
DOG RIVER*     NOT AVBL


CITY           SKY/WX    TMP DP  RH WIND       PRES   REMARKS
GULF SHORES    NOT AVBL

$$

ALZ051>060-200000-
INTERIOR SOUTHWEST AND SOUTH CENTRAL ALABAMA

CITY           SKY/WX    TMP DP  RH WIND       PRES   REMARKS
GREENVILLE     PTSUNNY   80  73  79 S12G20    29.75F
EVERGREEN      CLOUDY    81  72  74 S12       29.77S
ATMORE*          N/A     81  77  89 SW12      29.80S
ANDALUSIA/OPP  PTSUNNY   84  74  71 VRB5G22   29.79F
ANDALUSIA*       N/A     81  73  78 SW6       29.80F
FLORALA APT    CLOUDY    79  73  82 SW17G26   29.83S
FLORALA*       NOT AVBL

$$

FLZ001>006-200000-
WESTERN FLORIDA PANHANDLE

CITY           SKY/WX    TMP DP  RH WIND       PRES   REMARKS
PENSACOLA      MOSUNNY   85  73  67 W21G29    29.82R
NAS PENSACOLA  SUNNY     83  73  72 SW20G29   29.83R
MILTON         NOT AVBL
WHTNG S FIELD  NOT AVBL


CITY           SKY/WX    TMP DP  RH WIND       PRES   REMARKS
JAY*           NOT AVBL
DUKE FIELD     PTSUNNY   77  75  94 S16       29.83S
CRESTVIEW      PTSUNNY   80  75  84 S10       29.84S
VALPARAISO     CLOUDY    75  73  94 SW16      29.84R
DESTIN         HVY RAIN  80  76  87 SW16G32   29.87R VSB 3/4

$$

MSZ076-079-200000-
INTERIOR SOUTHEAST MISSISSIPPI

CITY           SKY/WX    TMP DP  RH WIND       PRES   REMARKS
LEAKESVILLE*   NOT AVBL
AGRICOLA*        N/A     81  70  69 CALM      29.81S

$$

MARINE OBSERVATIONS

STATION/POSITION TIME  TEMP    WIND        PRES    WAVE
                       AIR SEA DIR/SP/G            HT/PER
                 (UTC) (F)     (DEG/KT/KT) (MB)    (FT/S)
PETIT BOIS ISLND 2230   83     240/ 22/ 27 1010.5S
E DAUPHIN ISLAND 2200   81     240/ 16/ 22 1010.1R
USCG MOBILE BAY  2230   83 80  240/ 12/ 17 1008.6R
STATE DOCKS      2230   81 79              1009.6R
WEEKS BAY        2145   83                 1010.0S
FORT MORGAN      2230   82     240/ 26/ 32 1009.9F
12 S ORANGE BCH  2250   81 81  230/ 19/ 23 1011.6R  10/ 9
PENSACOLA BAY    2230   82 81  170/  5/ 12 1009.9R
64 S DAUPHIN ISL 2250   81 81  230/ 19/ 25 1011.9F   8/ 8

$$

SELECTED LOCATIONS ACROSS THE REGION

CITY           SKY/WX    TMP DP  RH WIND       PRES   REMARKS
NEW ORLEANS    PTSUNNY   88  73  61 SW10      29.85S HX  95
GULFPORT       PTSUNNY   84  73  69 SW8G20    29.82S
PASCAGOULA AP  PTSUNNY   83  74  74 SW8G17    29.83R
PASCAGOULA*    NOT AVBL
HATTIESBURG    MOSUNNY   83  67  58 W8G20     29.81R
LAUREL         MOSUNNY   81  71  71 VRB7      29.82R
MERIDIAN       RAIN      72  69  90 W10       29.73R FOG
JACKSON        MOSUNNY   83  66  56 N12       29.82S
MONTGOMERY     CLOUDY    80  74  81 SE13      29.76F
TROY           PTSUNNY   80  73  79 S10       29.81F
ASHFORD*         N/A     81  73  78 SW6       29.80F
DOTHAN         LGT RAIN  79  77  94 S15G23    29.87F FOG
PANAMA CITY    LGT RAIN  80  76  87 S18G25    29.88F

$$




USA.gov is the U.S. government's official web portal to all federal, state and local government web resources and services.